AirNav  
 
 923 users online  

H66 Nowata Municipal Airport
Nowata, Oklahoma, USA

GOING TO NOWATA?


FAA INFORMATION EFFECTIVE 25 FEBRUARY 2021

Location

FAA Identifier: H66
Lat/Long: 36-43-15.3200N 095-37-30.9210W
36-43.255333N 095-37.515350W
36.7209222,-95.6252558
(estimated)
Elevation: 679 ft. / 207.0 m (surveyed)
Variation: 06E (1985)
From city: 2 miles NE of NOWATA, OK
Time zone: UTC -6 (UTC -5 during Daylight Saving Time)
Zip code: 74048

Airport Operations

Airport use: Open to the public
Activation date: 09/1945
Control tower: no
ARTCC: KANSAS CITY CENTER
FSS: MC ALESTER FLIGHT SERVICE STATION
NOTAMs facility: MLC (NOTAM-D service available)
Attendance: UNATNDD
Wind indicator: yes
Segmented circle: yes

Airport Communications

CTAF: 122.9
WX ASOS at BVO (19 nm W): 132.675 (918-336-2070)

Nearby radio navigation aids

VOR radial/distance  VOR name  Freq  Var
BVOr102/20.1BARTLESVILLE VOR/DME117.9008E
TULr006/32.4TULSA VORTAC114.4008E
OSWr210/33.1OSWEGO VOR/DME117.6008E

Airport Services

Airframe service: NONE
Powerplant service: NONE
Bottled oxygen: NONE
Bulk oxygen: NONE

Runway Information

Runway 17/35

Dimensions: 2500 x 45 ft. / 762 x 14 m
Surface: asphalt, in good condition
Weight bearing capacity: 
Single wheel: 4.0
RUNWAY 17  RUNWAY 35
Traffic pattern: leftleft
Markings: nonenone
Obstructions: 20 ft. trees, 609 ft. from runway, 20:1 slope to clear24 ft. trees, 256 ft. from runway, 97 ft. left of centerline, 2:1 slope to clear
20 FT TREES AT RWY END 110 FT LEFT AND RIGHT OF CENTERLINE.

Runway 5/23

Dimensions: 2440 x 45 ft. / 744 x 14 m
Surface: turf/L
RWY UNIDENTIFIABLE; RWY EXTREMELY ROUGH & COVERED WITH TALL GRASS & HAY BALES.
Operational restrictions: RWY 05/23 CLSD INDEFLY.
RUNWAY 5  RUNWAY 23
Traffic pattern: leftleft
Obstructions: 40 ft. pline, 325 ft. from runway, 8:1 slope to clear40 ft. trees, 700 ft. from runway, 17:1 slope to clear

Airport Ownership and Management from official FAA records

Ownership: Publicly-owned
Owner: CITY OF NOWATA
114 S MAPLE ST
NOWATA, OK 74048
Phone 918-273-3538
Manager: MELANIE COLLINS
114 S MAPLE ST
NOWATA, OK 74048
Phone (918) 273-3538
CITY MANAGER.

Airport Operational Statistics

Aircraft based on the field: 7
Single engine airplanes: 7
    
Aircraft operations: avg 62/month *
75% local general aviation
25% transient general aviation
* for 12-month period ending 20 November 2020

Additional Remarks

-2 FT DITCH AT RY 23 THLD; -12 FT DITCH 220 FT FM RY 35 THLD.
FOR CD CTC KANSAS CITY ARTCC AT 913-254-8508.

Instrument Procedures

There are no published instrument procedures at H66.

Some nearby airports with instrument procedures:

KBVO - Bartlesville Municipal Airport (19 nm W)
KCFV - Coffeyville Municipal Airport (23 nm N)
KGCM - Claremore Regional Airport (27 nm S)
KIDP - Independence Municipal Airport (27 nm N)
1K8 - South Grand Lake Regional Airport (31 nm E)
 
Loc | Ops | Rwys | IFR | FBO | Links
Com | Nav | Svcs | Stats | Notes
Area around H66 (Nowata Municipal Airport)
 
Road maps at: MapQuest Bing Google
 
Aerial photo
WARNING: Photo may not be current or correct
Aerial photo of H66 (Nowata Municipal Airport)
Photo taken 22-Apr-2006

Do you have a better or more recent aerial photo of Nowata Municipal Airport that you would like to share? If so, please send us your photo.

 
Sectional chart

 
Airport distance calculator
Flying to Nowata Municipal Airport? Find the distance to fly.

From to H66

Sunrise and sunset
Times for 04-Mar-2021
 Local
(UTC-6)
 Zulu
(UTC)
Morning civil twilight06:2412:24
Sunrise06:5012:50
Sunset18:1800:18
Evening civil twilight18:4400:44

Current date and time
Zulu (UTC)  04-Mar-2021 13:31:28
Local (UTC-6)  04-Mar-2021 07:31:28
 
METAR
KBVO 
19nm W 
041253Z AUTO 00000KT 10SM CLR M02/M03 A3014 RMK AO2 SLP206 T10221033
KCFV 
22nm N 
041252Z AUTO 00000KT 10SM CLR 00/M03 A3013 RMK AO2 SLP204 T00001028
KGCM 
26nm S 
041315Z AUTO 00000KT 10SM CLR 05/00 A3015 RMK AO2
KIDP 
27nm N 
041315Z AUTO 00000KT 10SM CLR 00/M01 A3014 RMK AO2 T00051014
KH71 
33nm SE 
041315Z AUTO 00000KT 10SM CLR 00/M01 A3013 RMK AO2
KTUL 
34nm S 
041253Z 11004KT 10SM CLR 04/01 A3013 RMK AO2 SLP201 T00440006
KPPF 
37nm N 
041252Z AUTO A3014 RMK AO2 SLPNO PWINO FZRANO TSNO $
TAF
KBVO 
19nm W 
041120Z 0412/0512 16004KT P6SM SKC FM041600 16010G17KT P6SM SCT250 FM042200 14013G19KT P6SM BKN250 FM050200 12008KT P6SM OVC100 FM050400 09007KT P6SM BKN060 TEMPO 0508/0512 4SM -SHRA OVC035
NOTAMs
Click for the latest NOTAMs
NOTAMs are issued by the DoD/FAA and will open in a separate window not controlled by AirNav.

 

 
 

Would you like to see your business listed on this page?

 If your business provides an interesting product or service to pilots, flight crews, aircraft, or users of the Nowata Municipal Airport, you should consider listing it here.  To start the listing process, click on the button below
 
Add a business
 

Other Pages about Nowata Municipal Airport

Update a link
 
Copyright © AirNav, LLC. All rights reserved. Privacy Policy  Contact